Погода в Згуровке

Украина / Киевская область     50°29′53″N   31°46′26″E
В апреле 2022 года жителям России запретили посещать сайт meteo.paraplan.net по решению Генеральной прокуратуры. Аудитория сайта уменьшилась в 10 раз. Владельцы сайта не видят смысла в поддержке погодного сервера в таких условиях. Сайт будет закрыт в октябре.
темп.,
°C
ветер,
м/с
пор.,
м/с
влажн.,
%
обл.,
%
осадки,
мм/ч
давл.,
гПа
погр.,
м
5 октября, ср
ср500:00+9з61189100 0.5 1015648
03:00+9зюз5109658 0.9 1017440
06:00+7з6129554 0.1 1019498
09:00+9зсз7108783 0.1 1021776
12:00+9зсз6877100 0.0 1023912
15:00+10зсз5878100 0.0 1024954
18:00+10зсз3681100 0.0 1024255
21:00+10зюз3484100 0.0 1025107
6 октября, чт
чт600:00+9зюз3686100 0.0 1025109
03:00+9юз3787100 0.0 1025147
06:00+8юз3788100 0.0 1024138
09:00+11зюз4980100 0.0 1024274
12:00+16зюз685880 0.0 1024637
15:00+18з685045 0.0 1023904
18:00+15зюз356859 0.0 102373
21:00+12з497979 0.0 1024166
7 октября, пт
пт700:00+11зсз399013 0.0 1025171
03:00+10зсз310945 0.0 1026202
06:00+10сз411955 0.0 1027280
09:00+11ссз49852 0.0 1028348
12:00+15ссз56540 0.0 1029693
15:00+17ссз45480 0.0 1028888
18:00+13ссз33670 0.0 102826
21:00+11ссв22780 0.0 102814
8 октября, сб
сб800:00+9св11835 0.0 102810
03:00+8в22855 0.0 102710
06:00+8вюв22880 0.0 102712
09:00+10юв24795 0.0 1026138
12:00+15ююв34555 0.0 1025653
15:00+17ю34455 0.0 1022885
18:00+14ююв225881 0.0 102118
21:00+11ююв3366100 0.0 102248
9 октября, вс
вс900:00+10ю3373100 0.0 102126
03:00+10ююз3380100 0.0 102034
06:00+9ююз3384100 0.0 101934
09:00+11зюз3574100 0.0 1020172
12:00+14сз71171100 0.0 1020956
15:00+11сз498669 0.2 1022502
18:00+11сз37770 0.0 1023142
21:00+9сз49840 0.0 1025189